Погода в Буторлине

Россия / Владимирская область     56°02′40″N   41°49′29″E
темп.,
°C
ветер,
м/с
пор.,
м/с
влажн.,
%
обл.,
%
осадки,
мм/ч
давл.,
гПа
погр.,
м
10 мая, пн
пн1000:00+5ссз51195100 0.2 1016659
03:00+6ссз51294100 0.3 1019741
06:00+5ссз51290100 0.0 1020620
09:00+6с41079100 0.0 1023666
12:00+12ссв5758100 0.0 10241091
15:00+12св4665100 0.0 10251088
18:00+11св387649 0.0 1025704
21:00+7всв249545 0.0 102798
11 мая, вт
вт1100:00+6ссв411964 0.0 1027299
03:00+6ссв412965 0.0 1028341
06:00+7св412885 0.0 1028357
09:00+13св58690 0.0 1028590
12:00+18св57604 0.0 1027885
15:00+20всв57580 0.0 10261107
18:00+19всв47691 0.0 1027886
21:00+13св3894100 0.1 1027145
12 мая, ср
ср1200:00+12всв2496100 0.1 102786
03:00+11всв269750 0.1 1027127
06:00+13всв3109473 0.0 1027277
09:00+19всв58675 0.0 1026615
12:00+20в5106383 0.6 10241197
15:00+21вюв51058100 2.3 10231966
18:00+17вюв41368100 0.1 1023785
21:00+15вюв41269100 0.1 1024486
13 мая, чт
чт1300:00+13вюв3108298 0.0 1024278
03:00+13вюв388887 0.0 1024206
06:00+14в398352 0.0 1024325
09:00+16вюв4117274 0.0 1023591
12:00+20ююв4959100 0.1 10221101
15:00+15вюв41394100 4.5 1021817
18:00+14юв31197100 4.7 1021542
21:00+13юв129868 4.8 102146
14 мая, пт
пт1400:00+12ююз119819 0.0 102110
03:00+11с119857 0.0 102110
06:00+13всв1397100 0.0 1021100
09:00+18вюв2483100 0.0 1020518
12:00+22ююв3465100 0.0 10191141
15:00+24ю3553100 0.0 10181791
18:00+23ююв23676 0.0 1017178
21:00+17ююв2289100 0.0 101741